Location: 433rd Scouts Home(Lloyd Manor Park, Etobicoke )
(43.6722°N, 79.5542°W)
Time: 18:11:36
(UTC-04:00)

N. Korean satellite - Pass Details

Date: 03 October 2021
Orbit: 450 x 494 km, 97.3° (Epoch: 28 October)

Event Time Altitude Azimuth Distance (km) Brightness Sun altitude
Rises 06:43:35 0° 10° (N) 2,558 10.4 -7.1°
Reaches altitude 10° 06:45:39 10° 9° (N) 1,680 9.4 -6.8°
Maximum altitude 06:49:16 76° 285° (WNW) 510 6.5 -6.1°
Drops below altitude 10° 06:52:53 10° 198° (SSW) 1,684 9.1 -5.4°
Sets 06:54:57 0° 197° (SSW) 2,565 10.1 -5.1°
